Location: Bethera
(33.2010°N, 79.7880°W)
Time: 08:10:30
(UTC-04:00)

Amateur Radio Satellites - All Passes

Search period start: 30 August 2014 07:40
Search period end: 31 August 2014 07:40
Location: Bethera, 33.2010°N, 79.7880°W

Satellite Date Start Highest point End Downlink Frequencies (MHz)
Time Altitude Azimuth
STRAND 1 30 Aug 07:42:09 07:47:11 61° 259° (WSW) 07:52:13 ?
Saudisat 1A 30 Aug 08:15:16 08:19:28 41° 57° (ENE) 08:23:37 436.775 MHz
KITSAT 1 30 Aug 08:29:27 08:36:11 28° 50° (NE) 08:42:52 435.175 FM
SO-67 30 Aug 08:38:53 08:42:17 55° 283° (WNW) 08:45:39 435.3500 MHz FM
RS-15 30 Aug 09:09:09 09:20:07 62° 302° (WNW) 09:30:56 29.354 - 29.394 USB, Beacon 29.352 USB
HO-68 30 Aug 09:09:37 09:14:35 20° 95° (E) 09:19:32 435.675 MHz FM
Saudisat 1A 30 Aug 09:56:08 09:58:39 15° 251° (WSW) 10:01:10 436.775 MHz
KITSAT 1 30 Aug 10:24:06 10:32:00 60° 249° (WSW) 10:39:51 435.175 FM
ISS 30 Aug 10:34:43 10:37:59 62° 133° (SE) 10:41:16 145.800 FM
UKube-1 30 Aug 10:36:29 10:40:48 63° 102° (ESE) 10:45:05 145.840 MHz, 145.915 MHz
Oscar 11 30 Aug 10:43:17 10:47:30 47° 99° (E) 10:51:41 145.825 FM, Beacon 2401.500 USB
HO-68 30 Aug 10:55:36 11:02:39 63° 289° (WNW) 11:09:40 435.675 MHz FM
PANSAT 30 Aug 11:06:49 11:08:17 12° 157° (SSE) 11:09:45 not established
FUNcube-1 30 Aug 11:07:27 11:11:35 34° 98° (E) 11:15:45 145.950 - 145.970 MHz USB
RS-15 30 Aug 11:28:48 11:35:14 17° 329° (NNW) 11:41:43 29.354 - 29.394 USB, Beacon 29.352 USB
ISS 30 Aug 12:13:11 12:15:00 14° 329° (NNW) 12:16:48 145.800 FM
SO-50 30 Aug 12:18:29 12:20:46 13° 48° (NE) 12:23:04 436.795 FM
Oscar 11 30 Aug 12:21:23 12:23:13 13° 293° (WNW) 12:25:03 145.825 FM, Beacon 2401.500 USB
FUNcube-1 30 Aug 12:44:32 12:47:42 19° 291° (WNW) 12:50:53 145.950 - 145.970 MHz USB
PANSAT 30 Aug 12:44:33 12:47:57 29° 168° (SSE) 12:51:21 not established
Oscar 16 30 Aug 12:48:09 12:50:11 12° 64° (ENE) 12:52:13 437.025 USB, Beacon 2401.1428
JAS-1B 30 Aug 13:16:38 13:23:22 22° 62° (ENE) 13:29:41 435.800 - 435.900 CW/SSB
MaSat-1 30 Aug 13:48:31 13:53:16 85° 292° (WNW) 13:58:25 437.345 MHz
Oscar 19 30 Aug 13:49:08 13:54:06 51° 73° (ENE) 13:59:07 437.125 CW, 437.150 USB
SO-50 30 Aug 13:57:00 14:01:48 72° 243° (WSW) 14:06:38 436.795 FM
AO-Echo 30 Aug 14:19:59 14:24:52 48° 74° (ENE) 14:29:36 ?
UOSAT-12 30 Aug 14:20:12 14:23:10 16° 49° (NE) 14:26:07 437.025 FM, 437.400 FM
ITAMSAT 1 30 Aug 14:20:41 14:25:33 44° 72° (ENE) 14:30:27 435.822 SSB
Oscar 16 30 Aug 14:23:47 14:28:54 67° 258° (WSW) 14:34:03 437.025 USB, Beacon 2401.1428
PANSAT 30 Aug 14:24:10 14:27:49 41° 180° (S) 14:31:28 not established
TMSAT-1 30 Aug 14:29:31 14:32:44 17° 66° (ENE) 14:35:57 436.925 FM
Uribyol 2 30 Aug 14:30:32 14:35:36 60° 74° (ENE) 14:40:40 436.500 FM
AO-27 30 Aug 14:49:16 14:54:27 89° 76° (ENE) 14:59:39 436.795 MHz FM
JAS-1B 30 Aug 15:02:59 15:12:56 85° 256° (WSW) 15:22:05 435.800 - 435.900 CW/SSB
Gurwin Techsat 1B 30 Aug 15:15:06 15:20:21 67° 75° (ENE) 15:25:37 435.225 FM
Oscar 19 30 Aug 15:30:50 15:33:40 15° 267° (W) 15:36:32 437.125 CW, 437.150 USB
AO-7 30 Aug 15:44:32 15:51:40 33° 62° (ENE) 15:58:46 29.400 - 29.500 MHz
UOSAT-12 30 Aug 15:59:03 16:03:37 52° 245° (WSW) 16:08:05 437.025 FM, 437.400 FM
AO-Echo 30 Aug 16:00:54 16:03:47 15° 266° (W) 16:06:37 ?
ITAMSAT 1 30 Aug 16:01:51 16:05:12 17° 266° (W) 16:08:34 435.822 SSB
Oscar 10/S400 30 Aug 16:01:59 16:21:25 29° 149° (SSE) 16:37:50 145.825 - 145.975 CW/USB, Beacon 145.810 USB
RS-15 30 Aug 16:03:59 16:13:03 28° 43° (NE) 16:22:18 29.354 - 29.394 USB, Beacon 29.352 USB
PANSAT 30 Aug 16:04:21 16:07:41 28° 193° (SSW) 16:11:01 not established
TMSAT-1 30 Aug 16:07:03 16:12:10 51° 260° (W) 16:17:20 436.925 FM
Uribyol 2 30 Aug 16:13:19 16:15:23 12° 267° (W) 16:17:28 436.500 FM
Sapphire 30 Aug 16:35:42 16:40:11 27° 107° (ESE) 16:44:42 437.095 MHz 1200 baud AX-25 AFSK
OPAL 30 Aug 16:37:08 16:39:31 13° 95° (E) 16:41:52 ?
Uosat F 30 Aug 16:48:28 16:53:27 74° 75° (ENE) 16:58:27 435.120 FM
JAS-1B 30 Aug 16:58:29 17:03:59 16° 269° (W) 17:09:21 435.800 - 435.900 CW/SSB
Gurwin Techsat 1B 30 Aug 16:59:01 17:00:42 11° 268° (W) 17:02:23 435.225 FM
PCSat 30 Aug 17:04:15 17:09:31 58° 112° (ESE) 17:14:50 145.825 MHz
ISS 30 Aug 17:07:58 17:09:43 14° 30° (NNE) 17:11:28 145.800 FM
AO-7 30 Aug 17:36:05 17:44:04 49° 258° (WSW) 17:52:05 29.400 - 29.500 MHz
JAS-2 30 Aug 17:39:05 17:44:05 26° 70° (ENE) 17:48:40 435.800 - 435.900 CW/SSB, 435.910 FM
PANSAT 30 Aug 17:46:25 17:47:19 11° 204° (SSW) 17:48:14 not established
Hamsat 30 Aug 18:06:07 18:10:05 38° 73° (ENE) 18:14:07 145.90 MHz
OPAL 30 Aug 18:13:33 18:18:41 60° 288° (WNW) 18:23:47 ?
RS-15 30 Aug 18:15:26 18:26:36 81° 245° (WSW) 18:38:16 29.354 - 29.394 USB, Beacon 29.352 USB
Sapphire 30 Aug 18:18:37 18:23:26 33° 302° (WNW) 18:28:18 437.095 MHz 1200 baud AX-25 AFSK
ISS 30 Aug 18:43:26 18:46:45 65° 226° (SW) 18:50:02 145.800 FM
PCSat 30 Aug 18:49:45 18:53:18 18° 308° (NW) 18:56:52 145.825 MHz
SO-67 30 Aug 19:08:20 19:11:02 22° 73° (ENE) 19:13:45 435.3500 MHz FM
JAS-2 30 Aug 19:23:05 19:28:59 38° 260° (W) 19:34:19 435.800 - 435.900 CW/SSB, 435.910 FM
Hamsat 30 Aug 19:43:53 19:46:10 14° 267° (W) 19:48:28 145.90 MHz
STRAND 1 30 Aug 19:56:58 20:02:03 65° 102° (ESE) 20:07:06 ?
RS-15 30 Aug 20:31:51 20:37:19 15° 261° (W) 20:42:54 29.354 - 29.394 USB, Beacon 29.352 USB
SO-67 30 Aug 20:41:58 20:44:01 15° 266° (W) 20:46:04 435.3500 MHz FM
HO-68 30 Aug 21:18:56 21:25:59 65° 71° (ENE) 21:33:02 435.675 MHz FM
UKube-1 30 Aug 21:28:10 21:32:00 32° 72° (ENE) 21:35:51 145.840 MHz, 145.915 MHz
Oscar 11 30 Aug 21:34:52 21:38:13 22° 70° (ENE) 21:41:35 145.825 FM, Beacon 2401.500 USB
STRAND 1 30 Aug 21:38:33 21:40:38 13° 296° (WNW) 21:42:43 ?
FUNcube-1 30 Aug 22:01:24 22:03:52 16° 68° (ENE) 22:06:22 145.950 - 145.970 MHz USB
Saudisat 1A 30 Aug 22:18:03 22:21:51 29° 112° (ESE) 22:25:41 436.775 MHz
AO-40 30 Aug 22:18:32 01:30:34 43° 191° (SSW) 07:12:48 Beacon 2401.320
KITSAT 1 30 Aug 22:53:11 23:00:03 32° 106° (ESE) 23:06:55 435.175 FM
UKube-1 30 Aug 23:05:20 23:08:13 17° 265° (W) 23:11:07 145.840 MHz, 145.915 MHz
HO-68 30 Aug 23:09:20 23:14:04 19° 266° (W) 23:18:50 435.675 MHz FM
Oscar 11 30 Aug 23:10:41 23:14:14 25° 264° (W) 23:17:49 145.825 FM, Beacon 2401.500 USB
FUNcube-1 30 Aug 23:36:11 23:39:56 33° 262° (W) 23:43:46 145.950 - 145.970 MHz USB
MaSat-1 30 Aug 23:47:36 23:52:01 90° 253° (WSW) 23:55:45 437.345 MHz
Saudisat 1A 30 Aug 23:57:54 00:01:24 23° 307° (NW) 00:04:56 436.775 MHz
KITSAT 1 31 Aug 00:47:19 00:55:04 49° 302° (WNW) 01:02:53 435.175 FM
Sapphire 31 Aug 01:30:16 01:31:16 10° 47° (NE) 01:32:16 437.095 MHz 1200 baud AX-25 AFSK
PCSat 31 Aug 01:57:18 02:01:16 20° 53° (NE) 02:05:12 145.825 MHz
Oscar 19 31 Aug 02:05:35 02:09:53 26° 96° (E) 02:14:09 437.125 CW, 437.150 USB
AO-Echo 31 Aug 02:32:18 02:35:45 20° 96° (E) 02:39:12 ?
ITAMSAT 1 31 Aug 02:38:27 02:42:28 23° 96° (E) 02:46:29 435.822 SSB
Oscar 16 31 Aug 02:39:49 02:44:58 62° 101° (ESE) 02:50:05 437.025 USB, Beacon 2401.1428
Uribyol 2 31 Aug 02:47:57 02:52:30 30° 98° (E) 02:57:03 436.500 FM
KITSAT 1 31 Aug 02:51:59 02:52:39 10° 325° (NW) 02:53:19 435.175 FM
JAS-1B 31 Aug 02:56:45 03:02:22 32° 95° (E) 03:07:27 435.800 - 435.900 CW/SSB
AO-27 31 Aug 03:06:46 03:11:45 46° 100° (E) 03:16:42 436.795 MHz FM
Sapphire 31 Aug 03:10:03 03:15:30 81° 64° (ENE) 03:20:55 437.095 MHz 1200 baud AX-25 AFSK
Gurwin Techsat 1B 31 Aug 03:35:55 03:40:50 38° 98° (E) 03:45:44 435.225 FM
PCSat 31 Aug 03:39:42 03:44:55 49° 249° (WSW) 03:50:05 145.825 MHz
Oscar 19 31 Aug 03:44:39 03:49:09 30° 290° (WNW) 03:53:37 437.125 CW, 437.150 USB
OPAL 31 Aug 03:48:03 03:50:57 16° 63° (ENE) 03:53:53 ?
AO-7 31 Aug 03:55:15 03:56:30 10° 91° (E) 03:57:46 29.400 - 29.500 MHz
SO-50 31 Aug 04:07:56 04:12:22 78° 299° (WNW) 04:16:55 436.795 FM
AO-Echo 31 Aug 04:10:24 04:14:32 32° 289° (WNW) 04:18:41 ?
ITAMSAT 1 31 Aug 04:17:19 04:21:58 35° 289° (WNW) 04:26:37 435.822 SSB
Oscar 16 31 Aug 04:21:17 04:23:44 14° 296° (WNW) 04:26:10 437.025 USB, Beacon 2401.1428
TMSAT-1 31 Aug 04:27:01 04:32:21 90° 104° (ESE) 04:37:38 436.925 FM
Uribyol 2 31 Aug 04:27:33 04:31:48 26° 291° (WNW) 04:36:04 436.500 FM
UOSAT-12 31 Aug 04:30:06 04:30:53 10° 106° (ESE) 04:31:40 437.025 FM, 437.400 FM
JAS-1B 31 Aug 04:47:25 04:52:55 29° 295° (WNW) 04:57:53 435.800 - 435.900 CW/SSB
AO-27 31 Aug 04:47:27 04:50:51 18° 294° (WNW) 04:54:16 436.795 MHz FM
Uosat F 31 Aug 05:00:51 05:05:18 32° 98° (E) 05:09:44 435.120 FM
Gurwin Techsat 1B 31 Aug 05:16:31 05:20:31 22° 292° (WNW) 05:24:29 435.225 FM
OPAL 31 Aug 05:24:26 05:29:20 53° 258° (WSW) 05:34:20 ?
AO-7 31 Aug 05:41:59 05:50:18 76° 106° (ESE) 05:58:33 29.400 - 29.500 MHz
UOSAT-12 31 Aug 06:05:52 06:10:24 64° 300° (WNW) 06:15:03 437.025 FM, 437.400 FM
RS-15 31 Aug 06:25:25 06:32:59 21° 102° (ESE) 06:40:22 29.354 - 29.394 USB, Beacon 29.352 USB
JAS-2 31 Aug 06:35:52 06:40:32 30° 98° (E) 06:45:32 435.800 - 435.900 CW/SSB, 435.910 FM
Uosat F 31 Aug 06:39:58 06:43:53 24° 292° (WNW) 06:47:47 435.120 FM
STRAND 1 31 Aug 07:08:43 07:13:44 60° 74° (ENE) 07:18:45 ?
Hamsat 31 Aug 07:31:39 07:35:54 56° 285° (WNW) 07:40:06 145.90 MHz
